Location: Artiguedieu
(43.5000°N, 0.5454°E)
Time: 12:38:53
(UTC+00:00)

Cosmos 1437 Rocket - Pass Details

Date: 06 December 2020
Orbit: 505 x 563 km, 81.2° (Epoch: 27 January)

Event Time Altitude Azimuth Distance (km) Brightness Sun altitude
Exits shadow 05:10:58 72° 194° (SSW) 537 2.6 -22.0°
Drops below altitude 10° 05:14:23 10° 174° (S) 1,721 5.5 -21.4°
Sets 05:16:31 0° 173° (S) 2,607 6.5 -21.0°
